Location: Gleizolles
(44.4833°N, 6.7667°E)
Time: 10:59:55
(UTC+00:00)

Courier 1B Rocket - All Passes

Search period start: 25 June 2024 00:00
Search period end: 05 July 2024 00:00
Orbit: 920 x 1201 km, 28.2° (Epoch: 25 June)

Date Brightness Start Highest point End Pass type
(mag) Time Alt. Az. Time Alt. Az. Time Alt. Az.
25 Jun - 00:58:37 10° SSW 01:01:55 14° SSE 01:05:20 10° SE visible
25 Jun - 02:49:37 10° SW 02:54:13 20° S 02:59:01 10° SE visible
25 Jun - 04:42:39 10° SW 04:46:38 16° SSW 04:50:46 10° SSE daylight
25 Jun - 23:59:27 10° S 00:01:11 11° SSE 00:02:57 10° SE visible
26 Jun - 01:49:04 10° SW 01:53:23 19° S 01:57:51 10° SE visible
26 Jun - 03:41:29 10° SW 03:45:45 18° S 03:50:13 10° SSE daylight
27 Jun - 00:48:46 10° SSW 00:52:35 16° S 00:56:30 10° SE visible
27 Jun - 02:40:33 10° SW 02:44:54 19° S 02:49:25 10° SE visible
27 Jun - 04:34:35 10° SW 04:37:15 12° SSW 04:39:58 10° S daylight
27 Jun - 23:48:48 10° SSW 23:51:50 14° SSE 23:54:54 10° SE visible
28 Jun - 01:39:49 10° SW 01:44:04 19° S 01:48:28 10° SE visible
28 Jun - 03:32:55 10° SW 03:36:25 15° SSW 03:40:00 10° SSE daylight
28 Jun - 22:49:41 10° S 22:51:06 11° SSE 22:52:30 10° SSE night (unlit)
29 Jun - 00:39:15 10° SW 00:43:16 18° S 00:47:24 10° SE visible
29 Jun - 02:31:43 10° SW 02:35:35 16° S 02:39:35 10° SSE visible
29 Jun - 23:38:53 10° SSW 23:42:30 16° S 23:46:10 10° SE night (unlit)
30 Jun - 01:30:45 10° SW 01:34:47 18° S 01:38:55 10° SE visible
30 Jun - 03:25:13 10° SW 03:27:03 11° SSW 03:28:56 10° S daylight
30 Jun - 22:38:51 10° SSW 22:41:46 14° SSE 22:44:41 10° SE night (unlit)
01 Jul - 00:29:58 10° SW 00:33:59 18° S 00:38:05 10° SE visible
01 Jul - 02:23:16 10° SW 02:26:16 14° SSW 02:29:20 10° SSE visible
01 Jul - 21:39:33 10° S 21:41:02 11° SSE 21:42:30 10° SSE night (unlit)
01 Jul - 23:29:20 10° SW 23:33:13 17° S 23:37:08 10° SE night (unlit)
02 Jul - 01:21:57 10° SW 01:25:29 16° S 01:29:06 10° SSE visible
02 Jul - 22:28:52 10° SSW 22:32:27 16° S 22:36:02 10° SE night (unlit)
03 Jul - 00:20:54 10° SW 00:24:43 17° S 00:28:34 10° SSE night (unlit)
03 Jul - 02:16:12 10° SSW 02:16:55 10° SSW 02:17:38 10° SSW visible
03 Jul - 21:28:41 10° SSW 21:31:42 14° SSE 21:34:42 10° SE visible
03 Jul - 23:20:01 10° SW 23:23:56 17° S 23:27:53 10° SE night (unlit)
04 Jul - 01:13:34 10° SW 01:16:10 13° SSW 01:18:49 10° S night (unlit)
04 Jul - 20:29:02 10° S 20:30:57 11° SSE 20:32:51 10° SE visible
04 Jul - 22:19:15 10° SW 22:23:10 17° S 22:27:04 10° SE visible
